COSMOS 249 DEB, 3506

Orbit data source: Space-Track

COSMOS 249 DEB, 3506 is space debris in LEO originally from a launch on Sun, 20 Oct 1968 UTC launched from the Tyuratam Missile And Space Complex (TTMTR). Debris objects in space refer to the collection of defunct objects orbiting the Earth. Examples of debris include non-operational satellites, rocket bodies, and fragments generated from explosions, collisions, or faulty payload assembly.

Loading next visibility...
Identifier
3506, 1968-091C
Orbit
LEO
Country
Flag of CISCIS
Related business
Manufacturer
Unknown
Mission
Spacecraft
Bus & Motor
Unknown
Mass
Unknown
Launch date (UTC)
1968-10-20 (58 years ago)
Launch vehicle
Unknown
Launch site
Tyuratam Missile And Space Complex (TTMTR)
Object type
Payload
Rocket body
Debris
Shape & HBR
Unknown shape, 0.6 m
Radar Cross Section
Medium (>0.1 m² and <1 m²)

Expand to show TLE details & history
Last TLE update: 11 hours ago

TLE from 11 hours ago
0 COSMOS 249 DEB
1 03506U 68091C   26207.45410294  .00000002  00000-0  49480-4 0  9995
2 03506  62.3705 162.9884 0939559 272.2440  77.1418 12.91129465711555
Epoch: 2026-07-26T10:53Z
TLE epoch observation values (Epoch: 2026-07-26T10:53:54.494Z)
Latitude
-0.00004°
Longitude
55.35952°
Altitude
1,204.298 km
Speed
7.297 km/s
True Right ascension
10h 51m 57s
True Declination
0° 00' 00"
Sunlit
Object was in daylight at epoch
Visualization orbit readout
Latitude
Unknown
Longitude
Unknown
Altitude
Unknown
Speed
Unknown
Apparent Right ascension
Unknown
Apparent Declination
Unknown
Sunlit
N/A
Visualization observer readout
Local Sidereal Time
11:37:17
Azimuth
Unknown
Elevation
Unknown
Doppler factor
Unknown
Orbital elements
Apogee altitude
2,017.05 km
Perigee altitude
574.985 km
Semi-major axis
7,674.155 km
Eccentricity
0.09396
Inclination
62.3705°
RAAN
162.9884°
Arg. of periapsis
272.244°
True anomaly
87.85677°
Mean anomaly
77.1418°
Eccentric anomaly
82.47876°
Mean motion
3.22847 °/min
Orbital period
111.51 mins
BSTAR
0.00004948

Documentation

Showing up to 5 results
|